Location: Unspecified
(49.2170°N, 0.0000°E)
Time: 01:11:51
(UTC+00:00)

SR - Pass Details

Date: 26 January 2021
Orbit: 573 x 882 km, 66.7° (Epoch: 03 March)

Event Time Altitude Azimuth Distance (km) Brightness Sun altitude
Exits shadow 05:33:33 38° 308° (NW) 1,131 ? -20.3°
Maximum altitude 05:33:55 38° 318° (NW) 1,127 ? -20.2°
Drops below altitude 10° 05:38:58 10° 27° (NNE) 2,369 ? -19.4°
Sets 05:41:40 0° 35° (NE) 3,350 ? -19.0°
